Regional Weather Roundup
Issued by NWS

Home | Current Version | Previous Version | Graphics & Text | Print | Product List | Glossary On
Versions: 1 2 3 4 5 6 7 8 9 10 11 12 13 14 15 16 17 18 19 20 21 22 23 24 25 26 27
000
ASUS45 KSLC 261010
RWRUT

UTAH REGIONAL WEATHER ROUNDUP
NATIONAL WEATHER SERVICE SALT LAKE CITY UT
400 AM MDT MON JUN 26 2017

UTZ001>011-023>025-261100-

NORTHERN UTAH

CITY           SKY/WX    TMP DP  RH WIND       PRES   REMARKS
BRIGHAM CITY   CLEAR     62  45  53 NW3       30.10S
HILL AFB       CLEAR     66  41  39 SE17G29   30.12F
LOGAN          CLEAR     58  48  69 CALM      30.14S
OGDEN          CLEAR     67  41  38 S7        30.09F
SALT LAKE CITY NOT AVBL
TOOELE VALLEY  CLEAR     63  36  36 S10       30.09F
WENDOVER         N/A     64  35  34 NE3       30.08F
HEBER CITY     CLEAR     50  41  71 CALM      30.24S
WEST JORDAN    CLEAR     64  47  55 CALM      30.12F

$$

UTZ011>015-024>027-261100-

CENTRAL/NORTHEAST UTAH

CITY           SKY/WX    TMP DP  RH WIND       PRES   REMARKS
PROVO AIRPORT  CLEAR     66  39  37 S7        30.13S
MOAB/CANYONLAN CLEAR     76  24  14 CALM      30.08R
DELTA          CLEAR     61  28  29 CALM      30.12R
PRICE          CLEAR     71  25  17 N7        30.21S
VERNAL         CLEAR     58  34  40 W6        30.21S

$$

UTZ013>016-019>022-027-261100-

SOUTHERN UTAH

CITY           SKY/WX    TMP DP  RH WIND       PRES   REMARKS
BRYCE CANYON   PTCLDY    49  29  46 W10       30.37S
CEDAR CITY     CLEAR     61  28  28 CALM      30.17S
MILFORD        CLEAR     63  20  19 W9        30.13S
ST GEORGE      SUNNY     81  36  19 SE6       29.96R
HANKSVILLE     CLEAR     64  14  14 CALM      30.11S
BLANDING       CLEAR     62  20  19 NE10      30.28R

$$

REGIONAL REPORTS     COLORADO/ARIZONA

CITY           SKY/WX    TMP DP  RH WIND       PRES   REMARKS
CRAIG, CO      CLOUDY    45  36  70 CALM      30.31S
GRAND JUNCTION CLEAR     68  32  26 S6        30.14S
RIFLE, CO      CLEAR     56  31  38 S5        30.26R
MONTROSE, CO   CLEAR     56  32  40 S6        30.25S
CORTEZ, CO     CLOUDY    48  33  56 E7        30.24R
COLORADO CITY    N/A     61  37  41 CALM      30.16S
PAGE, AZ       NOT AVBL
GRAND CANYON   CLEAR     49  35  58 E3        30.31S
KINGMAN, AZ    CLEAR     80  30  16 S12       30.03R
FLAGSTAFF, AZ  CLEAR     50  44  80 CALM      30.35S

$$

REGIONAL REPORTS    NEVADA/IDAHO/WYOMING

CITY           SKY/WX    TMP DP  RH WIND       PRES   REMARKS
LAS VEGAS, NV  CLEAR     95  16   5 SW10G22   29.86F
ELY, NY        PTCLDY    52  27  38 VRB3      30.23S
ELKO, NV       CLEAR     62  34  35 CALM      30.12S
POCATELLO, ID  CLEAR     49  44  83 CALM      30.13S
BURLEY, ID     CLEAR     57  50  77 NE3       30.06F
FORT BRIDGER,    N/A     52  32  46 NW9       30.36F
EVANSTON, WY   CLOUDY    56  32  40 SW3       30.34S
ROCK SPRINGS,  CLOUDY    54  25  32 E8        30.33F
KEMMERER, WY     N/A     54  32  43 N14       30.36S

$$




USA.gov is the U.S. government's official web portal to all federal, state and local government web resources and services.